KG7QQL Weather Reports


time (UTC)temp
C
wind
direction
speed
KPH
gust
KPH
rain 1hr
cm
rain 24hr
cm
rain mn
cm
humidity
%
barometer
mb
20260507040537 12 80 4.8 9.7 0.00 0.00 0.00 86
20260507040033 12 75 3.2 16.1 0.00 0.00 0.00 86
20260507035529 12 86 1.6 3.2 0.00 0.00 0.00 86
20260507035026 12 124 3.2 4.8 0.00 0.00 0.00 86
20260507034523 12 89 0.0 9.7 0.00 0.00 0.00 85
20260507034021 13 87 1.6 3.2 0.00 0.00 0.00 85
20260507033518 13 92 4.8 8.0 0.00 0.00 0.00 84
20260507033015 13 211 3.2 8.0 0.00 0.00 0.00 84
20260507032512 13 113 0.0 9.7 0.00 0.00 0.00 84
20260507032008 13 107 3.2 6.4 0.00 0.00 0.00 84
20260507031505 13 111 3.2 12.9 0.00 0.00 0.00 84
20260507031003 13 110 0.0 4.8 0.00 0.00 0.00 84
20260507030459 13 101 4.8 9.7 0.00 0.00 0.00 83
20260507025956 13 157 0.0 4.8 0.00 0.00 0.00 83
20260507025453 13 102 4.8 9.7 0.00 0.00 0.00 83
20260507024951 13 107 3.2 8.0 0.00 0.00 0.00 83
20260507024448 13 105 3.2 6.4 0.00 0.00 0.00 83
20260507023944 13 136 0.0 6.4 0.00 0.00 0.00 83
20260507023441 13 126 0.0 12.9 0.00 0.00 0.00 82
20260507022938 13 54 1.6 6.4 0.00 0.00 0.00 83
20260507022436 13 128 3.2 11.3 0.00 0.00 0.00 82
20260507021930 13 110 4.8 9.7 0.00 0.00 0.00 82
20260507021426 13 88 3.2 6.4 0.00 0.00 0.00 82
20260507020924 13 93 3.2 8.0 0.00 0.00 0.00 82
20260507020420 13 97 3.2 8.0 0.00 0.00 0.00 82
20260507015918 13 42 0.0 6.4 0.00 0.00 0.00 82
20260507015416 13 106 4.8 12.9 0.00 0.00 0.00 82
20260507014913 13 109 4.8 11.3 0.00 0.00 0.00 82
20260507014409 13 105 6.4 9.7 0.00 0.00 0.00 82
20260507013905 13 185 1.6 9.7 0.00 0.00 0.00 82
20260507013402 13 117 4.8 12.9 0.00 0.00 0.00 82
20260507012900 13 114 8.0 12.9 0.00 0.00 0.00 82
20260507012355 13 101 8.0 17.7 0.00 0.00 0.00 81
20260507011847 13 107 3.2 8.0 0.00 0.00 0.00 82
20260507011344 13 113 11.3 17.7 0.00 0.00 0.00 82
20260507010838 13 113 14.5 16.1 0.00 0.00 0.00 82
20260507010334 13 100 4.8 11.3 0.00 0.00 0.00 81
20260507005831 13 114 8.0 12.9 0.00 0.00 0.00 81
20260507005328 13 107 8.0 17.7 0.00 0.00 0.00 81
20260507004825 13 113 4.8 8.0 0.00 0.00 0.00 81
20260507004322 13 134 0.0 9.7 0.00 0.00 0.00 81
20260507003819 13 92 3.2 8.0 0.00 0.00 0.00 82
20260507003314 13 97 6.4 12.9 0.00 0.00 0.00 81
20260507002809 13 119 3.2 6.4 0.00 0.00 0.00 81
20260507002306 13 127 9.7 17.7 0.00 0.00 0.00 81
20260507001803 13 111 3.2 9.7 0.00 0.00 0.00 81
20260507001300 13 80 0.0 16.1 0.00 0.00 0.00 81
20260507000756 13 132 0.0 14.5 0.00 0.00 0.00 81
20260507000252 13 114 4.8 12.9 0.00 0.00 0.00 81
20260506235749 13 111 6.4 17.7 0.00 0.00 0.00 81
20260506235244 13 105 3.2 11.3 0.00 0.00 0.00 80
20260506234742 13 121 8.0 12.9 0.00 0.00 0.00 80
20260506234239 13 136 1.6 8.0 0.00 0.00 0.00 81
20260506233736 13 103 3.2 11.3 0.00 0.00 0.00 80
20260506233233 13 140 4.8 4.8 0.00 0.00 0.00 80
20260506232730 13 238 0.0 8.0 0.00 0.00 0.00 81
20260506232224 13 128 3.2 8.0 0.00 0.00 0.00 81
20260506231722 13 165 1.6 14.5 0.00 0.00 0.00 81
20260506231220 13 136 4.8 12.9 0.00 0.00 0.00 81
20260506230716 13 115 6.4 9.7 0.00 0.00 0.00 80
20260506230214 13 110 0.0 8.0 0.00 0.00 0.00 81
20260506225710 13 158 3.2 12.9 0.00 0.00 0.00 81
20260506225207 13 121 8.0 14.5 0.00 0.00 0.00 80
20260506224703 13 130 1.6 12.9 0.00 0.00 0.00 81
20260506224201 13 132 1.6 9.7 0.00 0.00 0.00 80
20260506223656 13 230 3.2 14.5 0.00 0.00 0.00 80
20260506223152 13 10 0.0 6.4 0.00 0.00 0.00 80
20260506222650 13 142 3.2 8.0 0.00 0.00 0.00 80
20260506222145 13 122 1.6 9.7 0.00 0.00 0.00 80
20260506221644 13 111 9.7 14.5 0.00 0.00 0.00 79
20260506221142 13 224 4.8 6.4 0.00 0.00 0.00 79
20260506220638 13 81 0.0 9.7 0.00 0.00 0.00 79
20260506220133 13 48 3.2 14.5 0.00 0.00 0.00 78
20260506215630 13 74 4.8 12.9 0.00 0.00 0.00 79
20260506215125 13 123 1.6 8.0 0.00 0.00 0.00 78
20260506214622 13 77 0.0 8.0 0.00 0.00 0.00 78
20260506214120 13 117 9.7 14.5 0.00 0.00 0.00 77
20260506213618 13 122 8.0 12.9 0.00 0.00 0.00 77
20260506213115 13 107 8.0 14.5 0.00 0.00 0.00 77
20260506212612 13 108 8.0 17.7 0.00 0.00 0.00 77
20260506212107 14 78 3.2 4.8 0.00 0.00 0.00 77
20260506211603 14 64 1.6 9.7 0.00 0.00 0.00 76
20260506211100 14 146 3.2 4.8 0.00 0.00 0.00 76
20260506210556 14 147 3.2 11.3 0.00 0.00 0.00 77
20260506210053 14 162 3.2 14.5 0.00 0.00 0.00 77
20260506205550 15 127 4.8 14.5 0.00 0.00 0.00 75
20260506205045 15 100 6.4 14.5 0.00 0.00 0.00 74
20260506204543 15 7 4.8 17.7 0.00 0.00 0.00 75
20260506204040 15 89 4.8 9.7 0.00 0.00 0.00 76
20260506203538 15 111 4.8 8.0 0.00 0.00 0.00 77
20260506203035 14 182 1.6 9.7 0.00 0.00 0.00 77
20260506202532 14 202 3.2 14.5 0.00 0.00 0.00 78
20260506202028 14 78 0.0 14.5 0.00 0.00 0.00 77
20260506201526 15 118 6.4 12.9 0.00 0.00 0.00 76
20260506201022 14 80 3.2 6.4 0.00 0.00 0.00 79
20260506200518 13 136 3.2 11.3 0.00 0.00 0.00 79
20260506200015 13 105 4.8 12.9 0.00 0.00 0.00 78
20260506195512 14 158 1.6 8.0 0.00 0.00 0.00 79
20260506195009 13 163 3.2 8.0 0.00 0.00 0.00 80
20260506194506 13 73 3.2 14.5 0.00 0.00 0.00 82
20260506194002 13 106 4.8 17.7 0.00 0.00 0.00 81
20260506193500 13 128 3.2 20.9 0.00 0.00 0.00 81
20260506192956 13 50 1.6 11.3 0.00 0.00 0.00 82
20260506192454 13 101 1.6 17.7 0.00 0.00 0.00 82
20260506191949 13 164 0.0 11.3 0.00 0.00 0.00 82
20260506191447 13 111 4.8 9.7 0.00 0.00 0.00 83
20260506190943 13 104 0.0 9.7 0.00 0.00 0.00 84
20260506190440 12 80 4.8 12.9 0.00 0.00 0.00 84
20260506185937 12 113 4.8 16.1 0.00 0.00 0.00 84
20260506185434 12 108 9.7 14.5 0.00 0.00 0.00 84
20260506184931 12 98 11.3 17.7 0.00 0.00 0.00 83
20260506184427 13 105 9.7 20.9 0.00 0.00 0.00 84
20260506183925 13 105 3.2 11.3 0.00 0.00 0.00 85
20260506183420 12 102 9.7 12.9 0.00 0.00 0.00 86
20260506182918 12 119 6.4 12.9 0.00 0.00 0.00 86
20260506182415 12 222 4.8 11.3 0.00 0.00 0.00 87
20260506181913 12 113 14.5 17.7 0.00 0.00 0.00 87
20260506181410 12 109 9.7 14.5 0.00 0.00 0.00 88
20260506180907 12 114 9.7 17.7 0.00 0.00 0.00 88
20260506180402 12 89 0.0 17.7 0.00 0.00 0.00 89
20260506175900 12 116 12.9 16.1 0.00 0.00 0.00 89
20260506175356 12 59 0.0 8.0 0.00 0.00 0.00 90
20260506174853 12 100 4.8 6.4 0.00 0.00 0.00 91
20260506174351 12 113 4.8 17.7 0.00 0.00 0.00 90
20260506173848 12 119 4.8 12.9 0.00 0.00 0.00 91
20260506173344 12 111 6.4 19.3 0.00 0.00 0.00 92
20260506172842 12 115 9.7 17.7 0.00 0.00 0.00 93
20260506172338 12 109 6.4 12.9 0.00 0.00 0.00 93
20260506171836 11 97 9.7 14.5 0.00 0.00 0.00 93
20260506171333 11 122 8.0 19.3 0.00 0.00 0.00 94
20260506170831 11 110 17.7 17.7 0.00 0.00 0.00 93
20260506170326 11 88 6.4 12.9 0.00 0.00 0.00 93
20260506165825 11 176 4.8 11.3 0.00 0.00 0.00 93
20260506165323 11 109 11.3 16.1 0.00 0.00 0.00 92
20260506164819 11 103 4.8 12.9 0.00 0.00 0.00 92
20260506164316 12 160 3.2 8.0 0.00 0.00 0.00 93
20260506163813 11 112 3.2 14.5 0.00 0.00 0.00 93
20260506163308 11 91 4.8 11.3 0.00 0.00 0.00 93
20260506162803 11 161 3.2 8.0 0.00 0.00 0.00 94
20260506162301 11 104 4.8 12.9 0.00 0.00 0.00 94
20260506161753 11 123 3.2 11.3 0.00 0.00 0.00 95
20260506161250 11 116 11.3 16.1 0.00 0.00 0.00 95
20260506160747 11 107 6.4 14.5 0.00 0.00 0.00 96
20260506160244 11 105 6.4 19.3 0.00 0.00 0.00 97
20260506155744 11 107 6.4 14.5 0.00 0.00 0.00 97
20260506155240 11 80 4.8 16.1 0.00 0.00 0.00 98
20260506153353 11 93 4.8 11.3 0.00 0.00 0.00 98
20260506152850 11 89 1.6 9.7 0.00 0.00 0.00 98
20260506152347 11 242 4.8 8.0 0.00 0.00 0.00 98
20260506151845 11 75 0.0 4.8 0.00 0.00 0.00 98
20260506151342 11 209 4.8 11.3 0.00 0.00 0.00 98
20260506150839 11 129 3.2 8.0 0.00 0.00 0.00 98
20260506150336 11 141 0.0 6.4 0.00 0.00 0.00 98
20260506145832 11 96 3.2 8.0 0.00 0.00 0.00 98
20260506145329 11 102 4.8 14.5 0.00 0.00 0.00 98
20260506144826 11 110 6.4 11.3 0.00 0.00 0.00 98
20260506144323 11 93 4.8 12.9 0.00 0.00 0.00 98
20260506143821 11 99 4.8 14.5 0.00 0.00 0.00 98
20260506143318 11 111 4.8 17.7 0.00 0.00 0.00 98
20260506142816 11 110 4.8 9.7 0.00 0.00 0.00 97
20260506142314 11 94 4.8 6.4 0.00 0.00 0.00 97
20260506141812 11 94 6.4 9.7 0.00 0.00 0.00 97
20260506141310 11 87 3.2 9.7 0.00 0.00 0.00 97
20260506140807 11 172 1.6 11.3 0.00 0.00 0.00 97
20260506140304 11 143 0.0 4.8 0.00 0.00 0.00 97
20260506135801 11 108 4.8 4.8 0.00 0.00 0.00 96
20260506135257 11 303 1.6 6.4 0.00 0.00 0.00 96
20260506134754 11 220 1.6 11.3 0.00 0.00 0.00 96
20260506134250 11 93 0.0 4.8 0.00 0.00 0.00 96
20260506133748 11 197 0.0 3.2 0.00 0.00 0.00 96
20260506133244 11 82 0.0 9.7 0.00 0.00 0.00 95
20260506132741 11 98 4.8 8.0 0.00 0.00 0.00 95
20260506132238 11 154 3.2 9.7 0.00 0.00 0.00 94
20260506131736 11 182 1.6 8.0 0.00 0.00 0.00 94
20260506131232 11 126 6.4 14.5 0.00 0.00 0.00 94
20260506130729 11 118 3.2 4.8 0.00 0.00 0.00 94
20260506130226 11 101 8.0 16.1 0.00 0.00 0.00 94
20260506125724 11 99 1.6 11.3 0.00 0.00 0.00 94
20260506125222 11 117 6.4 17.7 0.00 0.00 0.00 93
20260506124720 11 100 12.9 16.1 0.00 0.00 0.00 93
20260506124217 11 105 4.8 14.5 0.00 0.00 0.00 93
20260506123714 11 106 6.4 9.7 0.00 0.00 0.00 93
20260506123213 11 112 8.0 11.3 0.00 0.00 0.00 93
20260506122709 11 101 4.8 12.9 0.00 0.00 0.00 93
20260506122207 11 102 3.2 12.9 0.00 0.00 0.00 93
20260506121705 11 108 1.6 6.4 0.00 0.00 0.00 93
20260506121201 11 116 4.8 11.3 0.00 0.00 0.00 93
20260506120659 11 108 4.8 11.3 0.00 0.00 0.00 93
20260506120156 11 124 8.0 12.9 0.00 0.00 0.00 93
20260506115654 11 104 6.4 14.5 0.00 0.00 0.00 92
20260506115152 11 112 4.8 11.3 0.00 0.00 0.00 92
20260506114649 11 251 4.8 8.0 0.00 0.00 0.00 92
20260506114147 11 111 4.8 17.7 0.00 0.00 0.00 92
20260506113645 11 112 9.7 12.9 0.00 0.00 0.00 92
20260506113142 11 110 8.0 11.3 0.00 0.00 0.00 92
20260506112638 11 102 8.0 12.9 0.00 0.00 0.00 92
20260506112136 11 117 4.8 11.3 0.00 0.00 0.00 92
20260506111634 11 87 3.2 9.7 0.00 0.00 0.00 93
20260506111131 11 119 6.4 12.9 0.00 0.00 0.00 93
20260506110628 11 103 8.0 12.9 0.00 0.00 0.00 93
20260506110126 11 111 3.2 12.9 0.00 0.00 0.00 93
20260506105622 11 92 3.2 19.3 0.00 0.00 0.00 93
20260506105119 11 114 3.2 8.0 0.00 0.00 0.00 93
20260506104617 11 94 4.8 6.4 0.00 0.00 0.00 93
20260506104114 11 105 6.4 9.7 0.00 0.00 0.00 93
20260506103612 11 87 0.0 4.8 0.00 0.00 0.00 93
20260506103108 11 124 1.6 6.4 0.00 0.00 0.00 93
20260506102607 11 104 3.2 8.0 0.00 0.00 0.00 93
20260506102104 11 199 1.6 6.4 0.00 0.00 0.00 93
20260506101600 11 165 0.0 8.0 0.00 0.00 0.00 93
20260506101057 11 54 1.6 12.9 0.00 0.00 0.00 93
20260506100555 11 56 3.2 8.0 0.00 0.00 0.00 93
20260506100053 11 124 1.6 8.0 0.00 0.00 0.00 92
20260506095552 11 235 4.8 8.0 0.00 0.00 0.00 92
20260506095048 11 217 3.2 8.0 0.00 0.00 0.00 92
20260506094546 11 108 4.8 9.7 0.00 0.00 0.00 92
20260506094043 11 85 6.4 11.3 0.00 0.00 0.00 92
20260506093542 11 141 0.0 11.3 0.00 0.00 0.00 92
20260506093039 11 93 6.4 8.0 0.00 0.00 0.00 92
20260506092536 11 113 1.6 11.3 0.00 0.00 0.00 92
20260506092033 11 255 1.6 9.7 0.00 0.00 0.00 92
20260506091531 11 114 8.0 14.5 0.00 0.00 0.00 92
20260506091028 11 115 6.4 11.3 0.00 0.00 0.00 92
20260506090526 11 80 3.2 9.7 0.00 0.00 0.00 91
20260506090022 11 118 6.4 14.5 0.00 0.00 0.00 91
20260506085519 11 275 1.6 8.0 0.00 0.00 0.00 91
20260506085015 11 118 1.6 8.0 0.00 0.00 0.00 91
20260506084513 11 88 4.8 11.3 0.00 0.00 0.00 90
20260506084008 12 127 4.8 19.3 0.00 0.00 0.00 90
20260506083506 12 114 6.4 14.5 0.00 0.00 0.00 90
20260506083003 12 109 6.4 12.9 0.00 0.00 0.00 90
20260506082500 12 110 3.2 12.9 0.00 0.00 0.00 90
20260506081955 12 107 3.2 12.9 0.00 0.00 0.00 90
20260506081454 12 108 8.0 11.3 0.00 0.00 0.00 90
20260506080951 12 111 6.4 16.1 0.00 0.00 0.00 90
20260506080448 12 108 1.6 16.1 0.00 0.00 0.00 89
20260506073432 12 68 8.0 11.3 0.00 0.00 0.00 88
20260506072929 12 107 4.8 9.7 0.00 0.00 0.00 88
20260506072426 12 106 6.4 11.3 0.00 0.00 0.00 88
20260506071924 12 94 8.0 14.5 0.00 0.00 0.00 88
20260506071422 12 97 8.0 14.5 0.00 0.00 0.00 88
20260506070918 12 85 9.7 12.9 0.00 0.00 0.00 88
20260506070415 12 112 14.5 16.1 0.00 0.00 0.00 88
20260506062353 13 89 0.0 8.0 0.00 0.00 0.00 86
20260506061848 13 95 1.6 6.4 0.00 0.00 0.00 86
20260506061345 13 88 1.6 6.4 0.00 0.00 0.00 86
20260506060843 13 101 1.6 6.4 0.00 0.00 0.00 85
20260506060341 13 63 6.4 9.7 0.00 0.00 0.00 85
20260506051313 15 85 4.8 8.0 0.00 0.00 0.00 83
20260506050811 15 63 4.8 11.3 0.00 0.00 0.00 83
20260506050308 15 103 4.8 12.9 0.00 0.00 0.00 83
20260506044758 15 104 8.0 9.7 0.00 0.00 0.00 83
20260506044256 15 70 3.2 6.4 0.00 0.00 0.00 83
20260506043753 15 63 4.8 11.3 0.00 0.00 0.00 84
20260506043250 15 64 4.8 6.4 0.00 0.00 0.00 84
20260506042749 15 94 4.8 8.0 0.00 0.00 0.00 83
20260506042248 15 93 6.4 9.7 0.00 0.00 0.00 82
20260506041746 15 80 4.8 9.7 0.00 0.00 0.00 82
20260506041242 15 111 6.4 8.0 0.00 0.00 0.00 82